OE6PWE-13 Weather Reports


Display with metric or nautical units.
time (UTC)temp
F
wind
direction
speed
MPH
gust
MPH
rain 1hr
in
rain 24hr
in
rain mn
in
humidity
%
barometer
mb
20260507154513 72 135 2.0 6.0 0.00 0.00 0.00 55 1009.0
20260507153019 72 186 3.0 6.0 0.00 0.00 0.00 55 1009.0
20260507151513 73 185 3.0 8.0 0.00 0.00 0.00 56 1009.0
20260507150019 73 173 2.0 8.0 0.00 0.00 0.00 56 1009.0
20260507144513 73 172 2.0 8.0 0.00 0.00 0.00 54 1009.0
20260507143019 73 198 2.0 7.0 0.00 0.00 0.00 54 1009.0
20260507141513 75 200 2.0 7.0 0.00 0.00 0.00 50 1009.0
20260507140018 73 141 1.0 4.0 0.00 0.00 0.00 53 1009.0
20260507134513 74 190 2.0 4.0 0.00 0.00 0.00 54 1009.0
20260507133021 75 170 2.0 6.0 0.00 0.00 0.00 51 1009.0
20260507131513 76 211 2.0 6.0 0.00 0.00 0.00 49 1009.0
20260507130020 75 242 2.0 4.0 0.00 0.00 0.00 47 1010.0
20260507124513 74 209 2.0 6.0 0.00 0.00 0.00 50 1010.0
20260507123018 75 174 3.0 8.0 0.00 0.00 0.00 51 1010.0
20260507121513 73 198 2.0 7.0 0.00 0.00 0.00 51 1010.0
20260507120019 74 221 1.0 5.0 0.00 0.00 0.00 52 1010.0
20260507114513 72 167 1.0 4.0 0.00 0.00 0.00 53 1010.0
20260507113023 73 225 0.0 3.0 0.00 0.00 0.00 54 1010.0
20260507111513 72 173 1.0 4.0 0.00 0.00 0.00 55 1010.0
20260507110020 71 277 2.0 7.0 0.00 0.00 0.00 55 1011.0
20260507104513 71 217 1.0 3.0 0.00 0.00 0.00 54 1011.0
20260507101512 70 55 1.0 5.0 0.00 0.00 0.00 54 1011.0
20260507100019 68 198 3.0 6.0 0.00 0.00 0.00 57 1011.0
20260507094513 68 210 2.0 6.0 0.00 0.00 0.00 60 1011.0
20260507091513 67 204 2.0 6.0 0.00 0.00 0.00 67 1012.0
20260507090020 65 228 2.0 6.0 0.00 0.00 0.00 67 1012.0
20260507084513 65 223 1.0 4.0 0.00 0.00 0.00 71 1012.0
20260507083019 64 225 0.0 2.0 0.00 0.00 0.00 70 1011.0
20260507081513 63 235 1.0 3.0 0.00 0.00 0.00 73 1012.0
20260507074513 61 259 0.0 2.0 0.00 0.00 0.00 75 1012.0
20260507071513 61 270 0.0 2.0 0.00 0.00 0.00 77 1011.0
20260507070020 59 0 0.0 0.0 0.00 0.00 0.00 81 1011.0
20260507064513 58 0 0.0 2.0 0.00 0.00 0.00 85 1011.0
20260507063021 57 0 0.0 0.0 0.00 0.00 0.00 86 1011.0
20260507061513 57 270 0.0 2.0 0.00 0.00 0.00 87 1011.0
20260507060019 56 0 0.0 0.0 0.00 0.00 0.00 87 1011.0
20260507054513 55 0 0.0 0.0 0.00 0.00 0.00 88 1011.0
20260507053020 55 0 0.0 0.0 0.00 0.00 0.00 88 1011.0
20260507051513 55 0 0.0 0.0 0.00 0.00 0.00 88 1011.0
20260507050021 55 0 0.0 0.0 0.00 0.00 0.00 89 1011.0
20260507044513 55 270 0.0 2.0 0.00 0.00 0.00 88 1010.0
20260507043019 55 0 0.0 2.0 0.00 0.00 0.00 86 1010.0
20260507041513 55 0 0.0 0.0 0.00 0.00 0.00 87 1010.0
20260507040021 56 270 0.0 2.0 0.00 0.00 0.00 85 1010.0
20260507034512 57 0 1.0 2.0 0.00 0.00 0.00 83 1010.0
20260507033020 58 270 0.0 2.0 0.00 0.00 0.00 80 1009.0
20260507031513 59 170 2.0 7.0 0.00 0.00 0.00 79 1009.0
20260507030020 59 185 2.0 8.0 0.00 0.00 0.00 77 1009.0
20260507024513 59 180 1.0 3.0 0.00 0.00 0.00 76 1009.0
20260507021513 60 185 3.0 10.0 0.00 0.00 0.00 74 1010.0
20260507020019 60 188 3.0 7.0 0.00 0.00 0.00 75 1010.0
20260507014513 60 191 2.0 5.0 0.00 0.00 0.00 75 1009.0
20260507013019 60 180 2.0 4.0 0.00 0.00 0.00 77 1009.0
20260507011513 60 223 1.0 4.0 0.00 0.00 0.00 76 1009.0
20260507010019 60 194 4.0 8.0 0.00 0.00 0.00 75 1009.0
20260507004513 60 160 1.0 4.0 0.00 0.00 0.00 76 1009.0
20260507001513 59 175 2.0 4.0 0.00 0.00 0.00 78 1009.0
20260507000018 60 240 0.0 2.0 0.00 0.00 0.00 78 1009.0
20260506234513 60 180 1.0 3.0 0.00 0.00 0.00 78 1009.0
20260506233022 60 180 2.0 6.0 0.00 0.00 0.00 76 1009.0
20260506231513 60 180 0.0 2.0 0.00 0.00 0.00 78 1009.0
20260506230021 61 0 0.0 2.0 0.00 0.00 0.00 77 1009.0
20260506224513 61 193 1.0 4.0 0.00 0.00 0.00 75 1009.0
20260506223021 61 180 1.0 6.0 0.00 0.00 0.00 75 1009.0
20260506221513 61 201 2.0 5.0 0.00 0.00 0.00 76 1009.0
20260506220025 61 180 0.0 4.0 0.00 0.00 0.00 76 1009.0
20260506214513 60 180 1.0 5.0 0.00 0.00 0.00 77 1009.0
20260506213021 60 152 1.0 7.0 0.00 0.00 0.00 77 1009.0
20260506211513 61 130 1.0 2.0 0.00 0.00 0.00 77 1009.0
20260506210020 61 166 1.0 7.0 0.00 0.00 0.00 76 1009.0
20260506204513 60 180 3.0 6.0 0.00 0.00 0.00 75 1009.0
20260506201513 62 215 1.0 4.0 0.00 0.00 0.00 72 1009.0
20260506200019 62 214 3.0 7.0 0.00 0.00 0.00 70 1009.0
20260506194513 61 206 2.0 9.0 0.00 0.00 0.00 71 1009.0
20260506193020 62 203 1.0 5.0 0.00 0.00 0.00 73 1008.0
20260506191513 62 183 2.0 7.0 0.00 0.00 0.00 71 1008.0
20260506190021 63 195 2.0 8.0 0.00 0.00 0.00 71 1008.0
20260506184513 63 191 4.0 12.0 0.00 0.00 0.00 70 1008.0
20260506183021 64 212 5.0 11.0 0.00 0.00 0.00 69 1008.0
20260506181513 64 180 4.0 6.0 0.00 0.00 0.00 69 1007.0
20260506180021 64 149 6.0 12.0 0.00 0.00 0.00 69 1007.0
20260506174513 64 170 5.0 17.0 0.00 0.00 0.00 69 1007.0
20260506173019 65 186 9.0 17.0 0.00 0.00 0.00 68 1007.0
20260506171513 65 181 7.0 16.0 0.00 0.00 0.00 68 1007.0
20260506170019 66 178 6.0 17.0 0.00 0.00 0.00 66 1007.0
20260506164513 67 199 3.0 11.0 0.00 0.00 0.00 66 1007.0
20260506161513 66 218 9.0 18.0 0.00 0.00 0.00 66 1007.0